Location: Lane
(33.5226°N, 79.8788°W)
Time: 11:56:24
(UTC+00:00)

Explorer 7 - Pass Details

Date: 06 October 2022
Orbit: 481 x 665 km, 50.3° (Epoch: 26 November)

Event Time Altitude Azimuth Distance (km) Brightness Sun altitude
Rises 13:00:23 0° 205° (SSW) 2,927 10.5 20.0°
Reaches altitude 10° 13:02:49 10° 196° (SSW) 2,042 9.9 20.5°
Maximum altitude 13:07:08 36° 131° (SE) 1,052 9.8 21.3°
Drops below altitude 10° 13:11:32 10° 65° (ENE) 2,087 10.5 22.1°
Sets 13:14:03 0° 57° (ENE) 3,001 11.0 22.6°
